Regional Weather Roundup
Issued by NWS

Home | Current Version | Previous Version | Text Only | Print | Product List | Glossary Off
Versions: 1 2 3 4 5 6 7 8 9 10 11 12 13 14 15 16 17 18 19 20 21 22 23 24 25 26 27 28 29 30 31 32 33 34 35 36 37 38 39 40 41 42 43 44 45 46 47 48 49 50

000
ASUS43 KOAX 230710
RWRNE

WEATHER ROUNDUP FOR NEBRASKA
NATIONAL WEATHER SERVICE OMAHA NE
200 AM CDT SAT SEP 23 2017

NOTES: SATELLITE DATA IS BEING USED TO AUGMENT CLOUD COVER ABOVE
       12000 FEET.
       "FAIR" INDICATES FEW OR NO CLOUDS BELOW 12,000 FEET WITH NO
       SIGNIFICANT WEATHER AND/OR OBSTRUCTIONS TO VISIBILITY.


NEZ001>004-019>022-054>056-230800-
NEBRASKA PANHANDLE

CITY           SKY/WX    TMP DP  RH WIND       PRES   REMARKS
SCOTTSBLUFF    CLOUDY    50  38  63 MISG      29.98R
ALLIANCE       PTCLDY    47  38  71 NE15      29.99R
CHADRON        CLOUDY    45  37  73 E9        30.00R
GORDON         CLOUDY    46  40  79 N10G17    29.98F
KIMBALL        MOCLDY    49  41  73 NE18      29.95R
SIDNEY         CLOUDY    50  42  74 N14       29.95R
$$

NEZ057>060-069>072-079>082-230800-
SOUTHWEST NEBRASKA

CITY           SKY/WX    TMP DP  RH WIND       PRES   REMARKS
NORTH PLATTE   PTCLDY    56  50  80 N15G23    29.89R
IMPERIAL       CLOUDY    60  50  69 N15       29.85R
LEXINGTON      PTCLDY    76  63  62 S17       29.82R
MCCOOK         PTCLDY    77  64  64 S20G31    29.79S
OGALLALA       CLOUDY    53  49  86 NE13G18   29.90S
$$

NEZ005>010-023>029-035>040-094-230800-
NORTH CENTRAL NEBRASKA

CITY           SKY/WX    TMP DP  RH WIND       PRES   REMARKS
VALENTINE      CLOUDY    51  46  83 N8        29.98R
AINSWORTH      CLOUDY    51  48  87 NW10      30.00R
BROKEN BOW     PTCLDY    59  51  75 N15       29.88R
O`NEILL        PTCLDY    57  56  95 N3        29.91R
ORD            MOCLDY    62  54  74 N5        29.87R
THEDFORD       CLOUDY    51  48  90 N10       29.94S
$$

NEZ041-046>049-061>064-073>077-083>087-230800-
SOUTH CENTRAL NEBRASKA

CITY           SKY/WX    TMP DP  RH WIND       PRES   REMARKS
GRAND ISLAND   PTCLDY    75  66  73 S17G24    29.84S
AURORA         PTCLDY    75  67  76 S15G21    29.86R
HASTINGS       PTCLDY    76  64  66 S13       29.86S
HEBRON         PTCLDY    76  67  74 S8        29.89R
HOLDREGE       PTCLDY    76  62  61 S16G24    29.84R
KEARNEY        PTCLDY    76  64  66 S20G29    29.84R
YORK           PTCLDY    73  66  78 S13       29.87R
$$

NEZ011>018-030>034-042>045-230800-
NORTHEAST NEBRASKA

CITY           SKY/WX    TMP DP  RH WIND       PRES   REMARKS
NORFOLK        CLEAR     75  66  73 S7        29.86R
ALBION         PTCLDY    74  66  76 CALM      29.87R
BLAIR          CLEAR     77  68  72 S14       29.89R
COLUMBUS       CLEAR     75  67  76 S12       29.86S
FREMONT        CLEAR     75  66  73 S9        29.88R
TEKAMAH        CLEAR     74  67  78 S8        29.86R
WAYNE          PTCLDY    73  70  91 S5        29.86R
$$

NEZ050>053-065>068-078-088>093-230800-
SOUTHEAST NEBRASKA

CITY           SKY/WX    TMP DP  RH WIND       PRES   REMARKS
LINCOLN        CLEAR     76  67  73 S14       29.88R
OMAHA EPPLEY   PTCLDY    78  67  68 S16       29.87R
BEATRICE       CLEAR     76  68  75 S12       29.90R
FALLS CITY     CLEAR     76  68  76 S8        29.92S
NEBRASKA CITY  CLEAR     73  71  91 S10       29.91S
PLATTSMOUTH    PTCLDY    75  69  82 SE9       29.89F
$$

NEZ044-045-051>053-067-230800-
OMAHA AREA

CITY           SKY/WX    TMP DP  RH WIND       PRES   REMARKS
OMAHA EPPLEY   PTCLDY    78  67  68 S16       29.87R
BLAIR          CLEAR     77  68  72 S14       29.89R
FREMONT        CLEAR     75  66  73 S9        29.88R
MILLARD        CLEAR     78  69  73 SE10G17   29.88R
OFFUTT AFB     CLEAR     75  68  77 SE15      29.87F
PLATTSMOUTH    PTCLDY    75  69  82 SE9       29.89F
WAHOO          FAIR      73  67  80 S7        29.87R
$$




USA.gov is the U.S. government's official web portal to all federal, state and local government web resources and services.